Simultaneous Nadir Overpasses (SNOs) Predictions

Prediction of SNOs between AQUA and GOES-15 Satellite Orbit:

Table of predicted SNOs for the next 14.0 days since TLE Epoch: 6/3/2022
Index Date Time (AQUA) AQUA Lat,Lon GOES-15 Lat,Lon Distance(km) Time Diff (sec)
1 06/04/2022 22:00:12 0.54,-125.53 -0.02,-128.12 295.31 80
2 06/05/2022 10:21:23 0.51,-130.67 -0.01,-128.14 286.70 80
3 06/07/2022 10:08:51 -0.14,-127.62 -0.00,-128.19 65.41 80
4 06/09/2022 09:56:18 -0.75,-124.56 0.01,-128.24 417.13 80
5 06/09/2022 22:17:37 -0.32,-129.73 0.02,-128.24 170.63 80
6 06/11/2022 22:05:05 0.36,-126.69 0.02,-128.27 180.26 80
7 06/12/2022 10:26:16 0.68,-131.83 -0.05,-128.29 401.77 80
8 06/14/2022 10:13:43 0.05,-128.78 -0.04,-128.32 52.05 80
9 06/16/2022 10:01:10 -0.60,-125.72 -0.04,-128.34 297.06 80
10 06/16/2022 22:22:28 -0.46,-130.90 0.07,-128.33 291.81 80
